Regional Weather Roundup
Issued by NWS

Home | Current Version | Previous Version | Text Only | Print | Product List | Glossary Off
Versions: 1 2 3 4 5 6 7 8 9 10 11 12 13 14 15 16 17 18 19 20 21 22 23 24 25 26 27 28 29 30 31 32 33 34 35 36 37 38 39 40 41 42 43 44 45 46 47 48 49 50

000
ASUS43 KBIS 300420
RWRND

NORTH DAKOTA REGIONAL WEATHER ROUNDUP
NATIONAL WEATHER SERVICE BISMARCK ND
1000 PM CST THU JAN 29 2015

NOTE: "FAIR" INDICATES FEW OR NO CLOUDS BELOW 12,000 FEET WITH NO
SIGNIFICANT WEATHER AND/OR OBSTRUCTIONS TO VISIBILITY.


NDZ001>003-009>011-017-300500-
NORTHWEST NORTH DAKOTA

CITY           SKY/WX    TMP DP  RH WIND       PRES   REMARKS
WILLISTON      CLEAR     26  20  77 S3        30.30F
MINOT          CLEAR     14  10  84 SE7       30.38F WCI   4
MINOT AFB      MOCLDY    13  12  98 SE8       30.39F WCI   1
$$

NDZ018>021-031>035-040>046-300500-
SOUTHWEST NORTH DAKOTA

CITY           SKY/WX    TMP DP  RH WIND       PRES   REMARKS
BISMARCK       CLEAR     18  15  88 SE7       30.45F WCI   9
DICKINSON      CLEAR     23  18  81 S9        30.30F WCI  13
GARRISON         N/A     17  14  88 SE6       30.39F WCI   9
HETTINGER ARPT CLEAR     26  15  63 SE6       30.34F WCI  19
$$

NDZ004>008-012>016-024-026-027-054-300500-
NORTHEAST NORTH DAKOTA

CITY           SKY/WX    TMP DP  RH WIND       PRES   REMARKS
GRAND FORKS    PTCLDY     6   0  76 CALM      30.59R
GRND FRKS AFB  CLEAR      5  -1  78 N2        30.58S
DEVILS LAKE    CLOUDY    10   5  79 SE7       30.47F WCI   0
$$

NDZ022-023-025-028>030-036>039-047>053-300500-
SOUTHEAST NORTH DAKOTA

CITY           SKY/WX    TMP DP  RH WIND       PRES   REMARKS
FARGO          FAIR       8   1  73 N6        30.59R WCI  -2
JAMESTOWN      CLOUDY    16  11  80 CALM      30.49F
$$



USA.gov is the U.S. government's official web portal to all federal, state and local government web resources and services.